Year,Month,Day,Hour,Minute,Value (Times are PST for temperature in C)
2015,06,23,00,00,16.20
2015,06,23,00,01,16.20
2015,06,23,00,02,16.20
2015,06,23,00,03,16.20
2015,06,23,00,04,16.20
2015,06,23,00,05,16.20
2015,06,23,00,06,16.10
2015,06,23,00,07,16.10
2015,06,23,00,08,16.20
2015,06,23,00,09,16.20
2015,06,23,00,10,16.20
2015,06,23,00,11,16.20
2015,06,23,00,12,16.20
2015,06,23,00,13,16.20
2015,06,23,00,14,16.20
2015,06,23,00,15,16.20
2015,06,23,00,16,16.20
2015,06,23,00,17,16.20
2015,06,23,00,18,16.20
2015,06,23,00,19,16.10
2015,06,23,00,20,16.00
2015,06,23,00,21,15.90
2015,06,23,00,22,15.80
2015,06,23,00,23,15.80
2015,06,23,00,24,15.70
2015,06,23,00,25,15.60
2015,06,23,00,26,15.50
2015,06,23,00,27,15.40
2015,06,23,00,28,15.40
2015,06,23,00,29,15.30
2015,06,23,00,30,15.30
2015,06,23,00,31,15.20
2015,06,23,00,32,15.10
2015,06,23,00,33,15.10
2015,06,23,00,34,15.00
2015,06,23,00,35,15.00
2015,06,23,00,36,14.90
2015,06,23,00,37,14.90
2015,06,23,00,38,14.80
2015,06,23,00,39,14.80
2015,06,23,00,40,14.70
2015,06,23,00,41,14.70
2015,06,23,00,42,14.70
2015,06,23,00,43,14.70
2015,06,23,00,44,14.70
2015,06,23,00,45,14.70
2015,06,23,00,46,14.70
2015,06,23,00,47,14.70
2015,06,23,00,48,14.70
2015,06,23,00,49,14.70
2015,06,23,00,50,14.70
2015,06,23,00,51,14.70
2015,06,23,00,52,14.70
2015,06,23,00,53,14.70
2015,06,23,00,54,14.70
2015,06,23,00,55,14.70
2015,06,23,00,56,14.70
2015,06,23,00,57,14.70
2015,06,23,00,58,14.70
2015,06,23,00,59,14.70
2015,06,23,01,00,14.80
2015,06,23,01,01,14.80
2015,06,23,01,02,14.80
2015,06,23,01,03,14.80
2015,06,23,01,04,14.90
2015,06,23,01,05,14.90
2015,06,23,01,06,14.90
2015,06,23,01,07,15.00
2015,06,23,01,08,15.00
2015,06,23,01,09,15.10
2015,06,23,01,10,15.10
2015,06,23,01,11,15.10
2015,06,23,01,12,15.10
2015,06,23,01,13,15.10
2015,06,23,01,14,15.10
2015,06,23,01,15,15.10
2015,06,23,01,16,15.10
2015,06,23,01,17,15.10
2015,06,23,01,18,15.10
2015,06,23,01,19,15.10
2015,06,23,01,20,15.10
2015,06,23,01,21,15.10
2015,06,23,01,22,15.00
2015,06,23,01,23,15.00
2015,06,23,01,24,14.90
2015,06,23,01,25,14.90
2015,06,23,01,26,14.90
2015,06,23,01,27,14.90
2015,06,23,01,28,14.90
2015,06,23,01,29,14.80
2015,06,23,01,30,14.80
2015,06,23,01,31,14.80
2015,06,23,01,32,14.80
2015,06,23,01,33,14.80
2015,06,23,01,34,14.80
2015,06,23,01,35,14.80
2015,06,23,01,36,14.80
2015,06,23,01,37,14.80
2015,06,23,01,38,14.80
2015,06,23,01,39,14.80
2015,06,23,01,40,14.80
2015,06,23,01,41,14.80
2015,06,23,01,42,14.80
2015,06,23,01,43,14.80
2015,06,23,01,44,14.80
2015,06,23,01,45,14.80
2015,06,23,01,46,14.80
2015,06,23,01,47,14.80
2015,06,23,01,48,14.80
2015,06,23,01,49,14.80
2015,06,23,01,50,14.80
2015,06,23,01,51,14.80
2015,06,23,01,52,14.80
2015,06,23,01,53,14.80
2015,06,23,01,54,14.80
2015,06,23,01,55,14.80
2015,06,23,01,56,14.80
2015,06,23,01,57,14.80
2015,06,23,01,58,14.80
2015,06,23,01,59,14.80
2015,06,23,02,00,14.70
2015,06,23,02,01,14.70
2015,06,23,02,02,14.70
2015,06,23,02,03,14.70
2015,06,23,02,04,14.70
2015,06,23,02,05,14.60
2015,06,23,02,06,14.60
2015,06,23,02,07,14.60
2015,06,23,02,08,14.60
2015,06,23,02,09,14.60
2015,06,23,02,10,14.60
2015,06,23,02,11,14.50
2015,06,23,02,12,14.50
2015,06,23,02,13,14.40
2015,06,23,02,14,14.40
2015,06,23,02,15,14.40
2015,06,23,02,16,14.30
2015,06,23,02,17,14.30
2015,06,23,02,18,14.20
2015,06,23,02,19,14.20
2015,06,23,02,20,14.20
2015,06,23,02,21,14.20
2015,06,23,02,22,14.10
2015,06,23,02,23,14.10
2015,06,23,02,24,14.00
2015,06,23,02,25,13.90
2015,06,23,02,26,13.90
2015,06,23,02,27,13.80
2015,06,23,02,28,13.70
2015,06,23,02,29,13.70
2015,06,23,02,30,13.60
2015,06,23,02,31,13.60
2015,06,23,02,32,13.50
2015,06,23,02,33,13.50
2015,06,23,02,34,13.40
2015,06,23,02,35,13.40
2015,06,23,02,36,13.30
2015,06,23,02,37,13.30
2015,06,23,02,38,13.30
2015,06,23,02,39,13.20
2015,06,23,02,40,13.20
2015,06,23,02,41,13.10
2015,06,23,02,42,13.10
2015,06,23,02,43,13.10
2015,06,23,02,44,13.00
2015,06,23,02,45,13.00
2015,06,23,02,46,12.90
2015,06,23,02,47,12.90
2015,06,23,02,48,12.90
2015,06,23,02,49,12.90
2015,06,23,02,50,12.90
2015,06,23,02,51,12.90
2015,06,23,02,52,12.90
2015,06,23,02,53,12.90
2015,06,23,02,54,12.90
2015,06,23,02,55,12.90
2015,06,23,02,56,12.90
2015,06,23,02,57,12.90
2015,06,23,02,58,12.80
2015,06,23,02,59,12.80
2015,06,23,03,00,12.80
2015,06,23,03,01,12.80
2015,06,23,03,02,12.80
2015,06,23,03,03,12.80
2015,06,23,03,04,12.70
2015,06,23,03,05,12.70
2015,06,23,03,06,12.70
2015,06,23,03,07,12.70
2015,06,23,03,08,12.70
2015,06,23,03,09,12.70
2015,06,23,03,10,12.70
2015,06,23,03,11,12.70
2015,06,23,03,12,12.70
2015,06,23,03,13,12.70
2015,06,23,03,14,12.70
2015,06,23,03,15,12.70
2015,06,23,03,16,12.80
2015,06,23,03,17,12.80
2015,06,23,03,18,12.90
2015,06,23,03,19,13.00
2015,06,23,03,20,13.10
2015,06,23,03,21,13.10
2015,06,23,03,22,13.20
2015,06,23,03,23,13.20
2015,06,23,03,24,13.20
2015,06,23,03,25,13.30
2015,06,23,03,26,13.30
2015,06,23,03,27,13.30
2015,06,23,03,28,13.30
2015,06,23,03,29,13.30
2015,06,23,03,30,13.30
2015,06,23,03,31,13.20
2015,06,23,03,32,13.20
2015,06,23,03,33,13.20
2015,06,23,03,34,13.20
2015,06,23,03,35,13.20
2015,06,23,03,36,13.10
2015,06,23,03,37,13.10
2015,06,23,03,38,13.10
2015,06,23,03,39,13.00
2015,06,23,03,40,13.00
2015,06,23,03,41,13.00
2015,06,23,03,42,13.00
2015,06,23,03,43,12.90
2015,06,23,03,44,12.90
2015,06,23,03,45,12.90
2015,06,23,03,46,12.90
2015,06,23,03,47,12.90
2015,06,23,03,48,12.80
2015,06,23,03,49,12.80
2015,06,23,03,50,12.80
2015,06,23,03,51,12.70
2015,06,23,03,52,12.70
2015,06,23,03,53,12.70
2015,06,23,03,54,12.60
2015,06,23,03,55,12.60
2015,06,23,03,56,12.60
2015,06,23,03,57,12.60
2015,06,23,03,58,12.50
2015,06,23,03,59,12.50
2015,06,23,04,00,12.50
2015,06,23,04,01,12.40
2015,06,23,04,02,12.40
2015,06,23,04,03,12.40
2015,06,23,04,04,12.30
2015,06,23,04,05,12.30
2015,06,23,04,06,12.20
2015,06,23,04,07,12.20
2015,06,23,04,08,12.20
2015,06,23,04,09,12.10
2015,06,23,04,10,12.10
2015,06,23,04,11,12.00
2015,06,23,04,12,12.00
2015,06,23,04,13,11.90
2015,06,23,04,14,11.90
2015,06,23,04,15,11.90
2015,06,23,04,16,11.80
2015,06,23,04,17,11.80
2015,06,23,04,18,11.80
2015,06,23,04,19,11.70
2015,06,23,04,20,11.70
2015,06,23,04,21,11.70
2015,06,23,04,22,11.70
2015,06,23,04,23,11.60
2015,06,23,04,24,11.60
2015,06,23,04,25,11.60
2015,06,23,04,26,11.50
2015,06,23,04,27,11.50
2015,06,23,04,28,11.50
2015,06,23,04,29,11.50
2015,06,23,04,30,11.60
2015,06,23,04,31,11.70
2015,06,23,04,32,11.70
2015,06,23,04,33,11.70
2015,06,23,04,34,11.70
2015,06,23,04,35,11.70
2015,06,23,04,36,11.70
2015,06,23,04,37,11.70
2015,06,23,04,38,11.70
2015,06,23,04,39,11.60
2015,06,23,04,40,11.70
2015,06,23,04,41,11.70
2015,06,23,04,42,11.70
2015,06,23,04,43,11.70
2015,06,23,04,44,11.70
2015,06,23,04,45,11.70
2015,06,23,04,46,11.70
2015,06,23,04,47,11.70
2015,06,23,04,48,11.60
2015,06,23,04,49,11.60
2015,06,23,04,50,11.60
2015,06,23,04,51,11.50
2015,06,23,04,52,11.50
2015,06,23,04,53,11.40
2015,06,23,04,54,11.40
2015,06,23,04,55,11.30
2015,06,23,04,56,11.30
2015,06,23,04,57,11.30
2015,06,23,04,58,11.20
2015,06,23,04,59,11.20
2015,06,23,05,00,11.20
2015,06,23,05,01,11.10
2015,06,23,05,02,11.10
2015,06,23,05,03,11.00
2015,06,23,05,04,11.00
2015,06,23,05,05,10.90
2015,06,23,05,06,10.90
2015,06,23,05,07,10.90
2015,06,23,05,08,10.80
2015,06,23,05,09,10.80
2015,06,23,05,10,10.80
2015,06,23,05,11,10.70
2015,06,23,05,12,10.70
2015,06,23,05,13,10.70
2015,06,23,05,14,10.70
2015,06,23,05,15,10.70
2015,06,23,05,16,10.70
2015,06,23,05,17,10.60
2015,06,23,05,18,10.60
2015,06,23,05,19,10.60
2015,06,23,05,20,10.60
2015,06,23,05,21,10.60
2015,06,23,05,22,10.50
2015,06,23,05,23,10.50
2015,06,23,05,24,10.50
2015,06,23,05,25,10.50
2015,06,23,05,26,10.40
2015,06,23,05,27,10.40
2015,06,23,05,28,10.40
2015,06,23,05,29,10.40
2015,06,23,05,30,10.40
2015,06,23,05,31,10.30
2015,06,23,05,32,10.30
2015,06,23,05,33,10.30
2015,06,23,05,34,10.30
2015,06,23,05,35,10.30
2015,06,23,05,36,10.20
2015,06,23,05,37,10.20
2015,06,23,05,38,10.20
2015,06,23,05,39,10.20
2015,06,23,05,40,10.20
2015,06,23,05,41,10.20
2015,06,23,05,42,10.20
2015,06,23,05,43,10.20
2015,06,23,05,44,10.20
2015,06,23,05,45,10.20
2015,06,23,05,46,10.10
2015,06,23,05,47,10.10
2015,06,23,05,48,10.10
2015,06,23,05,49,10.20
2015,06,23,05,50,10.20
2015,06,23,05,51,10.20
2015,06,23,05,52,10.30
2015,06,23,05,53,10.30
2015,06,23,05,54,10.40
2015,06,23,05,55,10.40
2015,06,23,05,56,10.40
2015,06,23,05,57,10.50
2015,06,23,05,58,10.50
2015,06,23,05,59,10.60
2015,06,23,06,00,10.60
2015,06,23,06,01,10.70
2015,06,23,06,02,10.70
2015,06,23,06,03,10.70
2015,06,23,06,04,10.80
2015,06,23,06,05,10.80
2015,06,23,06,06,10.80
2015,06,23,06,07,10.80
2015,06,23,06,08,10.90
2015,06,23,06,09,10.90
2015,06,23,06,10,11.00
2015,06,23,06,11,11.10
2015,06,23,06,12,11.10
2015,06,23,06,13,11.20
2015,06,23,06,14,11.30
2015,06,23,06,15,11.30
2015,06,23,06,16,11.40
2015,06,23,06,17,11.40
2015,06,23,06,18,11.40
2015,06,23,06,19,11.40
2015,06,23,06,20,11.50
2015,06,23,06,21,11.50
2015,06,23,06,22,11.50
2015,06,23,06,23,11.50
2015,06,23,06,24,11.60
2015,06,23,06,25,11.60
2015,06,23,06,26,11.60
2015,06,23,06,27,11.60
2015,06,23,06,28,11.60
2015,06,23,06,29,11.60
2015,06,23,06,30,11.60
2015,06,23,06,31,11.70
2015,06,23,06,32,11.70
2015,06,23,06,33,11.70
2015,06,23,06,34,11.70
2015,06,23,06,35,11.80
2015,06,23,06,36,11.90
2015,06,23,06,37,11.90
2015,06,23,06,38,12.00
2015,06,23,06,39,12.10
2015,06,23,06,40,12.20
2015,06,23,06,41,12.20
2015,06,23,06,42,12.30
2015,06,23,06,43,12.30
2015,06,23,06,44,12.40
2015,06,23,06,45,12.40
2015,06,23,06,46,12.50
2015,06,23,06,47,12.50
2015,06,23,06,48,12.60
2015,06,23,06,49,12.60
2015,06,23,06,50,12.70
2015,06,23,06,51,12.70
2015,06,23,06,52,12.70
2015,06,23,06,53,12.80
2015,06,23,06,54,12.80
2015,06,23,06,55,12.80
2015,06,23,06,56,12.90
2015,06,23,06,57,12.90
2015,06,23,06,58,12.90
2015,06,23,06,59,12.90
2015,06,23,07,00,13.00
2015,06,23,07,01,13.00
2015,06,23,07,02,13.00
2015,06,23,07,03,13.10
2015,06,23,07,04,13.10
2015,06,23,07,05,13.10
2015,06,23,07,06,13.10
2015,06,23,07,07,13.10
2015,06,23,07,08,13.20
2015,06,23,07,09,13.20
2015,06,23,07,10,13.20
2015,06,23,07,11,13.30
2015,06,23,07,12,13.30
2015,06,23,07,13,13.30
2015,06,23,07,14,13.40
2015,06,23,07,15,13.40
2015,06,23,07,16,13.40
2015,06,23,07,17,13.50
2015,06,23,07,18,13.50
2015,06,23,07,19,13.50
2015,06,23,07,20,13.50
2015,06,23,07,21,13.60
2015,06,23,07,22,13.60
2015,06,23,07,23,13.70
2015,06,23,07,24,13.70
2015,06,23,07,25,13.70
2015,06,23,07,26,13.80
2015,06,23,07,27,13.80
2015,06,23,07,28,13.90
2015,06,23,07,29,13.90
2015,06,23,07,30,13.90
2015,06,23,07,31,14.00
2015,06,23,07,32,14.10
2015,06,23,07,33,14.10
2015,06,23,07,34,14.20
2015,06,23,07,35,14.20
2015,06,23,07,36,14.20
2015,06,23,07,37,14.30
2015,06,23,07,38,14.30
2015,06,23,07,39,14.40
2015,06,23,07,40,14.40
2015,06,23,07,41,14.50
2015,06,23,07,42,14.50
2015,06,23,07,43,14.60
2015,06,23,07,44,14.70
2015,06,23,07,45,14.70
2015,06,23,07,46,14.80
2015,06,23,07,47,14.90
2015,06,23,07,48,15.00
2015,06,23,07,49,15.10
2015,06,23,07,50,15.20
2015,06,23,07,51,15.30
2015,06,23,07,52,15.40
2015,06,23,07,53,15.50
2015,06,23,07,54,15.60
2015,06,23,07,55,15.70
2015,06,23,07,56,15.70
2015,06,23,07,57,15.80
2015,06,23,07,58,15.80
2015,06,23,07,59,15.90
2015,06,23,08,00,15.90
2015,06,23,08,01,16.00
2015,06,23,08,02,16.00
2015,06,23,08,03,16.00
2015,06,23,08,04,16.10
2015,06,23,08,05,16.10
2015,06,23,08,06,16.10
2015,06,23,08,07,16.10
2015,06,23,08,08,16.20
2015,06,23,08,09,16.20
2015,06,23,08,10,16.30
2015,06,23,08,11,16.40
2015,06,23,08,12,16.50
2015,06,23,08,13,16.60
2015,06,23,08,14,16.60
2015,06,23,08,15,16.70
2015,06,23,08,16,16.80
2015,06,23,08,17,16.80
2015,06,23,08,18,16.80
2015,06,23,08,19,16.80
2015,06,23,08,20,16.80
2015,06,23,08,21,16.80
2015,06,23,08,22,16.80
2015,06,23,08,23,16.80
2015,06,23,08,24,16.80
2015,06,23,08,25,16.80
2015,06,23,08,26,16.80
2015,06,23,08,27,16.80
2015,06,23,08,28,16.80
2015,06,23,08,29,16.90
2015,06,23,08,30,16.90
2015,06,23,08,31,16.90
2015,06,23,08,32,16.90
2015,06,23,08,33,16.90
2015,06,23,08,34,16.90
2015,06,23,08,35,16.90
2015,06,23,08,36,16.90
2015,06,23,08,37,16.90
2015,06,23,08,38,16.90
2015,06,23,08,39,17.00
2015,06,23,08,40,17.00
2015,06,23,08,41,17.10
2015,06,23,08,42,17.10
2015,06,23,08,43,17.10
2015,06,23,08,44,17.10
2015,06,23,08,45,17.10
2015,06,23,08,46,17.10
2015,06,23,08,47,17.10
2015,06,23,08,48,17.00
2015,06,23,08,49,16.90
2015,06,23,08,50,16.90
2015,06,23,08,51,16.90
2015,06,23,08,52,16.90
2015,06,23,08,53,16.90
2015,06,23,08,54,16.90
2015,06,23,08,55,16.90
2015,06,23,08,56,16.90
2015,06,23,08,57,16.90
2015,06,23,08,58,16.90
2015,06,23,08,59,16.90
2015,06,23,09,00,16.90
2015,06,23,09,01,16.90
2015,06,23,09,02,16.90
2015,06,23,09,03,17.00
2015,06,23,09,04,17.00
2015,06,23,09,05,17.10
2015,06,23,09,06,17.20
2015,06,23,09,07,17.20
2015,06,23,09,08,17.30
2015,06,23,09,09,17.40
2015,06,23,09,10,17.40
2015,06,23,09,11,17.50
2015,06,23,09,12,17.60
2015,06,23,09,13,17.60
2015,06,23,09,14,17.60
2015,06,23,09,15,17.70
2015,06,23,09,16,17.70
2015,06,23,09,17,17.70
2015,06,23,09,18,17.80
2015,06,23,09,19,17.80
2015,06,23,09,20,17.80
2015,06,23,09,21,17.80
2015,06,23,09,22,17.80
2015,06,23,09,23,17.80
2015,06,23,09,24,17.80
2015,06,23,09,25,17.80
2015,06,23,09,26,17.80
2015,06,23,09,27,17.80
2015,06,23,09,28,17.80
2015,06,23,09,29,17.80
2015,06,23,09,30,17.70
2015,06,23,09,31,17.60
2015,06,23,09,32,17.60
2015,06,23,09,33,17.50
2015,06,23,09,34,17.50
2015,06,23,09,35,17.60
2015,06,23,09,36,17.60
2015,06,23,09,37,17.70
2015,06,23,09,38,17.70
2015,06,23,09,39,17.60
2015,06,23,09,40,17.60
2015,06,23,09,41,17.50
2015,06,23,09,42,17.40
2015,06,23,09,43,17.30
2015,06,23,09,44,17.30
2015,06,23,09,45,17.30
2015,06,23,09,46,17.30
2015,06,23,09,47,17.30
2015,06,23,09,48,17.30
2015,06,23,09,49,17.30
2015,06,23,09,50,17.40
2015,06,23,09,51,17.50
2015,06,23,09,52,17.50
2015,06,23,09,53,17.50
2015,06,23,09,54,17.60
2015,06,23,09,55,17.60
2015,06,23,09,56,17.70
2015,06,23,09,57,17.80
2015,06,23,09,58,17.80
2015,06,23,09,59,17.90
2015,06,23,10,00,18.00
2015,06,23,10,01,18.10
2015,06,23,10,02,18.20
2015,06,23,10,03,18.20
2015,06,23,10,04,18.30
2015,06,23,10,05,18.30
2015,06,23,10,06,18.30
2015,06,23,10,07,18.20
2015,06,23,10,08,18.20
2015,06,23,10,09,18.10
2015,06,23,10,10,18.00
2015,06,23,10,11,18.00
2015,06,23,10,12,18.00
2015,06,23,10,13,18.00
2015,06,23,10,14,17.90
2015,06,23,10,15,17.90
2015,06,23,10,16,17.90
2015,06,23,10,17,18.00
2015,06,23,10,18,18.00
2015,06,23,10,19,17.90
2015,06,23,10,20,17.90
2015,06,23,10,21,17.90
2015,06,23,10,22,18.00
2015,06,23,10,23,18.00
2015,06,23,10,24,17.90
2015,06,23,10,25,17.90
2015,06,23,10,26,17.90
2015,06,23,10,27,17.90
2015,06,23,10,28,17.90
2015,06,23,10,29,17.90
2015,06,23,10,30,17.90
2015,06,23,10,31,18.00
2015,06,23,10,32,18.10
2015,06,23,10,33,18.20
2015,06,23,10,34,18.20
2015,06,23,10,35,18.20
2015,06,23,10,36,18.20
2015,06,23,10,37,18.20
2015,06,23,10,38,18.30
2015,06,23,10,39,18.30
2015,06,23,10,40,18.30
2015,06,23,10,41,18.30
2015,06,23,10,42,18.30
2015,06,23,10,43,18.30
2015,06,23,10,44,18.40
2015,06,23,10,45,18.40
2015,06,23,10,46,18.50
2015,06,23,10,47,18.60
2015,06,23,10,48,18.70
2015,06,23,10,49,18.80
2015,06,23,10,50,18.80
2015,06,23,10,51,18.90
2015,06,23,10,52,18.90
2015,06,23,10,53,19.00
2015,06,23,10,54,19.00
2015,06,23,10,55,19.00
2015,06,23,10,56,18.90
2015,06,23,10,57,18.90
2015,06,23,10,58,18.90
2015,06,23,10,59,18.80
2015,06,23,11,00,18.80
2015,06,23,11,01,18.80
2015,06,23,11,02,18.70
2015,06,23,11,03,18.70
2015,06,23,11,04,18.70
2015,06,23,11,05,18.70
2015,06,23,11,06,18.80
2015,06,23,11,07,18.80
2015,06,23,11,08,18.90
2015,06,23,11,09,18.90
2015,06,23,11,10,19.00
2015,06,23,11,11,19.00
2015,06,23,11,12,19.00
2015,06,23,11,13,19.00
2015,06,23,11,14,19.10
2015,06,23,11,15,19.10
2015,06,23,11,16,19.20
2015,06,23,11,17,19.20
2015,06,23,11,18,19.20
2015,06,23,11,19,19.20
2015,06,23,11,20,19.20
2015,06,23,11,21,19.20
2015,06,23,11,22,19.20
2015,06,23,11,23,19.20
2015,06,23,11,24,19.30
2015,06,23,11,25,19.30
2015,06,23,11,26,19.20
2015,06,23,11,27,19.20
2015,06,23,11,28,19.30
2015,06,23,11,29,19.30
2015,06,23,11,30,19.30
2015,06,23,11,31,19.30
2015,06,23,11,32,19.30
2015,06,23,11,33,19.40
2015,06,23,11,34,19.40
2015,06,23,11,35,19.50
2015,06,23,11,36,19.40
2015,06,23,11,37,19.30
2015,06,23,11,38,19.30
2015,06,23,11,39,19.20
2015,06,23,11,40,19.20
2015,06,23,11,41,19.20
2015,06,23,11,42,19.30
2015,06,23,11,43,19.50
2015,06,23,11,44,19.50
2015,06,23,11,45,19.60
2015,06,23,11,46,19.60
2015,06,23,11,47,19.70
2015,06,23,11,48,19.80
2015,06,23,11,49,19.80
2015,06,23,11,50,19.70
2015,06,23,11,51,19.60
2015,06,23,11,52,19.50
2015,06,23,11,53,19.40
2015,06,23,11,54,19.40
2015,06,23,11,55,19.30
2015,06,23,11,56,19.30
2015,06,23,11,57,19.30
2015,06,23,11,58,19.40
2015,06,23,11,59,19.30
2015,06,23,12,00,19.30
2015,06,23,12,01,19.30
2015,06,23,12,02,19.30
2015,06,23,12,03,19.40
2015,06,23,12,04,19.40
2015,06,23,12,05,19.40
2015,06,23,12,06,19.40
2015,06,23,12,07,19.40
2015,06,23,12,08,19.40
2015,06,23,12,09,19.30
2015,06,23,12,10,19.20
2015,06,23,12,11,19.10
2015,06,23,12,12,19.10
2015,06,23,12,13,19.10
2015,06,23,12,14,19.20
2015,06,23,12,15,19.30
2015,06,23,12,16,19.40
2015,06,23,12,17,19.40
2015,06,23,12,18,19.40
2015,06,23,12,19,19.40
2015,06,23,12,20,19.40
2015,06,23,12,21,19.40
2015,06,23,12,22,19.40
2015,06,23,12,23,19.30
2015,06,23,12,24,19.30
2015,06,23,12,25,19.20
2015,06,23,12,26,19.20
2015,06,23,12,27,19.20
2015,06,23,12,28,19.20
2015,06,23,12,29,19.30
2015,06,23,12,30,19.30
2015,06,23,12,31,19.40
2015,06,23,12,32,19.50
2015,06,23,12,33,19.50
2015,06,23,12,34,19.60
2015,06,23,12,35,19.60
2015,06,23,12,36,19.70
2015,06,23,12,37,19.60
2015,06,23,12,38,19.60
2015,06,23,12,39,19.50
2015,06,23,12,40,19.50
2015,06,23,12,41,19.60
2015,06,23,12,42,19.60
2015,06,23,12,43,19.60
2015,06,23,12,44,19.60
2015,06,23,12,45,19.70
2015,06,23,12,46,19.70
2015,06,23,12,47,19.80
2015,06,23,12,48,19.80
2015,06,23,12,49,19.80
2015,06,23,12,50,19.70
2015,06,23,12,51,19.70
2015,06,23,12,52,19.70
2015,06,23,12,53,19.70
2015,06,23,12,54,19.70
2015,06,23,12,55,19.60
2015,06,23,12,56,19.60
2015,06,23,12,57,19.70
2015,06,23,12,58,19.70
2015,06,23,12,59,19.80
2015,06,23,13,00,19.90
2015,06,23,13,01,19.90
2015,06,23,13,02,19.90
2015,06,23,13,03,19.90
2015,06,23,13,04,20.00
2015,06,23,13,05,19.90
2015,06,23,13,06,19.90
2015,06,23,13,07,19.90
2015,06,23,13,08,19.90
2015,06,23,13,09,20.00
2015,06,23,13,10,20.10
2015,06,23,13,11,20.10
2015,06,23,13,12,20.10
2015,06,23,13,13,20.10
2015,06,23,13,14,20.10
2015,06,23,13,15,20.10
2015,06,23,13,16,20.10
2015,06,23,13,17,20.00
2015,06,23,13,18,19.80
2015,06,23,13,19,19.70
2015,06,23,13,20,19.70
2015,06,23,13,21,19.70
2015,06,23,13,22,19.80
2015,06,23,13,23,19.80
2015,06,23,13,24,19.80
2015,06,23,13,25,19.80
2015,06,23,13,26,19.80
2015,06,23,13,27,19.80
2015,06,23,13,28,19.80
2015,06,23,13,29,19.70
2015,06,23,13,30,19.70
2015,06,23,13,31,19.80
2015,06,23,13,32,19.90
2015,06,23,13,33,19.90
2015,06,23,13,34,19.90
2015,06,23,13,35,19.90
2015,06,23,13,36,19.90
2015,06,23,13,37,19.90
2015,06,23,13,38,19.80
2015,06,23,13,39,19.90
2015,06,23,13,40,19.90
2015,06,23,13,41,19.90
2015,06,23,13,42,20.00
2015,06,23,13,43,20.10
2015,06,23,13,44,20.10
2015,06,23,13,45,20.20
2015,06,23,13,46,20.30
2015,06,23,13,47,20.30
2015,06,23,13,48,20.20
2015,06,23,13,49,20.20
2015,06,23,13,50,20.10
2015,06,23,13,51,20.00
2015,06,23,13,52,19.90
2015,06,23,13,53,19.80
2015,06,23,13,54,19.80
2015,06,23,13,55,19.80
2015,06,23,13,56,19.80
2015,06,23,13,57,19.90
2015,06,23,13,58,20.00
2015,06,23,13,59,20.10
2015,06,23,14,00,20.20
2015,06,23,14,01,20.20
2015,06,23,14,02,20.30
2015,06,23,14,03,20.30
2015,06,23,14,04,20.40
2015,06,23,14,05,20.40
2015,06,23,14,06,20.50
2015,06,23,14,07,20.60
2015,06,23,14,08,20.60
2015,06,23,14,09,20.60
2015,06,23,14,10,20.60
2015,06,23,14,11,20.60
2015,06,23,14,12,20.70
2015,06,23,14,13,20.70
2015,06,23,14,14,20.70
2015,06,23,14,15,20.70
2015,06,23,14,16,20.70
2015,06,23,14,17,20.60
2015,06,23,14,18,20.60
2015,06,23,14,19,20.60
2015,06,23,14,20,20.60
2015,06,23,14,21,20.60
2015,06,23,14,22,20.60
2015,06,23,14,23,20.60
2015,06,23,14,24,20.60
2015,06,23,14,25,20.60
2015,06,23,14,26,20.60
2015,06,23,14,27,20.60
2015,06,23,14,28,20.70
2015,06,23,14,29,20.70
2015,06,23,14,30,20.70
2015,06,23,14,31,20.80
2015,06,23,14,32,20.90
2015,06,23,14,33,21.00
2015,06,23,14,34,21.00
2015,06,23,14,35,21.00
2015,06,23,14,36,20.90
2015,06,23,14,37,21.00
2015,06,23,14,38,21.00
2015,06,23,14,39,21.10
2015,06,23,14,40,21.10
2015,06,23,14,41,21.20
2015,06,23,14,42,21.20
2015,06,23,14,43,21.20
2015,06,23,14,44,21.30
2015,06,23,14,45,21.40
2015,06,23,14,46,21.50
2015,06,23,14,47,21.60
2015,06,23,14,48,21.70
2015,06,23,14,49,21.70
2015,06,23,14,50,21.60
2015,06,23,14,51,21.60
2015,06,23,14,52,21.60
2015,06,23,14,53,21.60
2015,06,23,14,54,21.70
2015,06,23,14,55,21.80
2015,06,23,14,56,21.90
2015,06,23,14,57,22.00
2015,06,23,14,58,22.00
2015,06,23,14,59,22.10
2015,06,23,15,00,22.20
2015,06,23,15,01,22.20
2015,06,23,15,02,22.20
2015,06,23,15,03,22.20
2015,06,23,15,04,22.20
2015,06,23,15,05,22.20
2015,06,23,15,06,22.20
2015,06,23,15,07,22.10
2015,06,23,15,08,22.20
2015,06,23,15,09,22.20
2015,06,23,15,10,22.30
2015,06,23,15,11,22.30
2015,06,23,15,12,22.40
2015,06,23,15,13,22.40
2015,06,23,15,14,22.40
2015,06,23,15,15,22.50
2015,06,23,15,16,22.50
2015,06,23,15,17,22.60
2015,06,23,15,18,22.70
2015,06,23,15,19,22.80
2015,06,23,15,20,22.80
2015,06,23,15,21,22.90
2015,06,23,15,22,22.90
2015,06,23,15,23,23.00
2015,06,23,15,24,22.90
2015,06,23,15,25,22.90
2015,06,23,15,26,22.90
2015,06,23,15,27,22.90
2015,06,23,15,28,22.90
2015,06,23,15,29,22.90
2015,06,23,15,30,22.90
2015,06,23,15,31,23.00
2015,06,23,15,32,23.00
2015,06,23,15,33,23.10
2015,06,23,15,34,23.10
2015,06,23,15,35,23.10
2015,06,23,15,36,23.00
2015,06,23,15,37,22.90
2015,06,23,15,38,22.80
2015,06,23,15,39,22.70
2015,06,23,15,40,22.70
2015,06,23,15,41,22.70
2015,06,23,15,42,22.70
2015,06,23,15,43,22.70
2015,06,23,15,44,22.70
2015,06,23,15,45,22.70
2015,06,23,15,46,22.80
2015,06,23,15,47,22.80
2015,06,23,15,48,22.80
2015,06,23,15,49,22.70
2015,06,23,15,50,22.70
2015,06,23,15,51,22.80
2015,06,23,15,52,22.80
2015,06,23,15,53,22.80
2015,06,23,15,54,22.80
2015,06,23,15,55,22.70
2015,06,23,15,56,22.50
2015,06,23,15,57,22.40
2015,06,23,15,58,22.30
2015,06,23,15,59,22.20
2015,06,23,16,00,22.20
2015,06,23,16,01,22.20
2015,06,23,16,02,22.30
2015,06,23,16,03,22.30
2015,06,23,16,04,22.40
2015,06,23,16,05,22.40
2015,06,23,16,06,22.40
2015,06,23,16,07,22.40
2015,06,23,16,08,22.40
2015,06,23,16,09,22.40
2015,06,23,16,10,22.50
2015,06,23,16,11,22.50
2015,06,23,16,12,22.50
2015,06,23,16,13,22.50
2015,06,23,16,14,22.60
2015,06,23,16,15,22.60
2015,06,23,16,16,22.60
2015,06,23,16,17,22.70
2015,06,23,16,18,22.70
2015,06,23,16,19,22.70
2015,06,23,16,20,22.70
2015,06,23,16,21,22.70
2015,06,23,16,22,22.80
2015,06,23,16,23,22.80
2015,06,23,16,24,22.90
2015,06,23,16,25,22.90
2015,06,23,16,26,22.90
2015,06,23,16,27,23.00
2015,06,23,16,28,23.00
2015,06,23,16,29,23.10
2015,06,23,16,30,23.30
2015,06,23,16,31,23.40
2015,06,23,16,32,23.60
2015,06,23,16,33,23.80
2015,06,23,16,34,23.90
2015,06,23,16,35,24.00
2015,06,23,16,36,24.10
2015,06,23,16,37,24.00
2015,06,23,16,38,24.00
2015,06,23,16,39,24.00
2015,06,23,16,40,24.00
2015,06,23,16,41,24.00
2015,06,23,16,42,24.00
2015,06,23,16,43,24.00
2015,06,23,16,44,24.10
2015,06,23,16,45,24.10
2015,06,23,16,46,24.10
2015,06,23,16,47,24.10
2015,06,23,16,48,24.10
2015,06,23,16,49,24.20
2015,06,23,16,50,24.20
2015,06,23,16,51,24.20
2015,06,23,16,52,24.30
2015,06,23,16,53,24.40
2015,06,23,16,54,24.40
2015,06,23,16,55,24.50
2015,06,23,16,56,24.70
2015,06,23,16,57,24.80
2015,06,23,16,58,25.00
2015,06,23,16,59,25.20
2015,06,23,17,00,25.20
2015,06,23,17,01,25.30
2015,06,23,17,02,25.20
2015,06,23,17,03,25.20
2015,06,23,17,04,25.20
2015,06,23,17,05,25.10
2015,06,23,17,06,25.00
2015,06,23,17,07,24.90
2015,06,23,17,08,24.80
2015,06,23,17,09,24.70
2015,06,23,17,10,24.70
2015,06,23,17,11,24.60
2015,06,23,17,12,24.60
2015,06,23,17,13,24.60
2015,06,23,17,14,24.60
2015,06,23,17,15,24.50
2015,06,23,17,16,24.40
2015,06,23,17,17,24.50
2015,06,23,17,18,24.50
2015,06,23,17,19,24.50